| time (UTC) | temp F | wind direction | speed MPH | gust MPH | rain 1hr in | rain 24hr in | rain mn in | humidity % | barometer mb |
| 20260505213802 | 85 | 146 | 1.0 | 1.0 | 0.00 | 0.00 | 0.00 | 71 | 1005.0 |
| 20260505213300 | 85 | 150 | 1.0 | 2.0 | 0.00 | 0.00 | 0.00 | 70 | 1005.0 |
| 20260505212755 | 85 | 163 | 0.0 | 1.0 | 0.00 | 0.00 | 0.00 | 70 | 1005.1 |
| 20260505212253 | 84 | 122 | 0.0 | 0.0 | 0.00 | 0.00 | 0.00 | 70 | 1005.0 |
| 20260505211749 | 84 | 117 | 0.0 | 0.0 | 0.00 | 0.00 | 0.00 | 70 | 1005.1 |
| 20260505211247 | 84 | 136 | 2.0 | 2.0 | 0.00 | 0.00 | 0.00 | 71 | 1005.2 |
| 20260505210743 | 84 | 111 | 0.0 | 0.0 | 0.00 | 0.00 | 0.00 | 71 | 1005.0 |
| 20260505210240 | 84 | 91 | 0.0 | 0.0 | 0.00 | 0.00 | 0.00 | 73 | 1005.3 |
| 20260505205738 | 83 | 130 | 0.0 | 1.0 | 0.00 | 0.00 | 0.00 | 73 | 1005.2 |
| 20260505205236 | 84 | 115 | 0.0 | 1.0 | 0.00 | 0.00 | 0.00 | 73 | 1005.3 |
| 20260505204732 | 84 | 170 | 1.0 | 1.0 | 0.00 | 0.00 | 0.00 | 72 | 1005.2 |
| 20260505204230 | 84 | 120 | 0.0 | 1.0 | 0.00 | 0.00 | 0.00 | 72 | 1005.5 |
| 20260505203727 | 83 | 129 | 1.0 | 1.0 | 0.00 | 0.00 | 0.00 | 71 | 1005.4 |
| 20260505203224 | 83 | 134 | 1.0 | 1.0 | 0.00 | 0.00 | 0.00 | 73 | 1005.7 |
| 20260505202719 | 82 | 143 | 0.0 | 0.0 | 0.00 | 0.00 | 0.00 | 73 | 1005.6 |
| 20260505202216 | 82 | 103 | 0.0 | 0.0 | 0.00 | 0.00 | 0.00 | 73 | 1005.8 |
| 20260505201712 | 82 | 195 | 2.0 | 2.0 | 0.00 | 0.00 | 0.00 | 74 | 1005.7 |
| 20260505201210 | 82 | 107 | 0.0 | 1.0 | 0.00 | 0.00 | 0.00 | 75 | 1005.9 |
| 20260505200708 | 82 | 114 | 0.0 | 0.0 | 0.00 | 0.00 | 0.00 | 73 | 1005.8 |
| 20260505200205 | 82 | 111 | 1.0 | 2.0 | 0.00 | 0.00 | 0.00 | 73 | 1006.0 |
| 20260505195701 | 82 | 135 | 1.0 | 2.0 | 0.00 | 0.00 | 0.00 | 73 | 1006.1 |
| 20260505195158 | 82 | 188 | 1.0 | 2.0 | 0.00 | 0.00 | 0.00 | 72 | 1006.1 |
| 20260505194655 | 83 | 192 | 1.0 | 1.0 | 0.00 | 0.00 | 0.00 | 73 | 1006.1 |
| 20260505194151 | 83 | 161 | 0.0 | 1.0 | 0.00 | 0.00 | 0.00 | 72 | 1005.9 |
| 20260505193648 | 82 | 157 | 0.0 | 0.0 | 0.00 | 0.00 | 0.00 | 74 | 1006.1 |
| 20260505193145 | 82 | 88 | 1.0 | 1.0 | 0.00 | 0.00 | 0.00 | 74 | 1005.9 |
| 20260505192644 | 82 | 148 | 0.0 | 0.0 | 0.00 | 0.00 | 0.00 | 73 | 1006.1 |
| 20260505192141 | 82 | 120 | 0.0 | 0.0 | 0.00 | 0.00 | 0.00 | 75 | 1006.2 |
| 20260505191639 | 81 | 97 | 0.0 | 0.0 | 0.00 | 0.00 | 0.00 | 74 | 1006.3 |
| 20260505191137 | 82 | 112 | 1.0 | 1.0 | 0.00 | 0.00 | 0.00 | 75 | 1006.4 |
| 20260505190633 | 82 | 179 | 1.0 | 2.0 | 0.00 | 0.00 | 0.00 | 73 | 1006.2 |
| 20260505190127 | 82 | 114 | 1.0 | 1.0 | 0.00 | 0.00 | 0.00 | 74 | 1006.3 |
| 20260505185624 | 82 | 104 | 0.0 | 1.0 | 0.00 | 0.00 | 0.00 | 75 | 1006.5 |
| 20260505185121 | 81 | 127 | 1.0 | 1.0 | 0.00 | 0.00 | 0.00 | 75 | 1006.3 |
| 20260505184617 | 81 | 127 | 1.0 | 2.0 | 0.00 | 0.00 | 0.00 | 76 | 1006.4 |
| 20260505184114 | 80 | 116 | 1.0 | 1.0 | 0.00 | 0.00 | 0.00 | 77 | 1006.2 |
| 20260505183611 | 80 | 95 | 0.0 | 0.0 | 0.00 | 0.00 | 0.00 | 77 | 1006.4 |
| 20260505183109 | 80 | 72 | 2.0 | 3.0 | 0.00 | 0.00 | 0.00 | 78 | 1006.6 |
| 20260505182604 | 80 | 144 | 1.0 | 1.0 | 0.00 | 0.00 | 0.00 | 77 | 1006.5 |
| 20260505182102 | 79 | 115 | 0.0 | 0.0 | 0.00 | 0.00 | 0.00 | 78 | 1006.6 |
| 20260505181558 | 79 | 166 | 1.0 | 1.0 | 0.00 | 0.00 | 0.00 | 77 | 1006.7 |
| 20260505181056 | 79 | 214 | 2.0 | 3.0 | 0.00 | 0.00 | 0.00 | 78 | 1006.7 |
| 20260505180551 | 80 | 116 | 0.0 | 0.0 | 0.00 | 0.00 | 0.00 | 78 | 1006.7 |
| 20260505180049 | 79 | 108 | 0.0 | 1.0 | 0.00 | 0.00 | 0.00 | 79 | 1006.7 |
| 20260505175544 | 79 | 153 | 0.0 | 0.0 | 0.00 | 0.00 | 0.00 | 79 | 1006.7 |
| 20260505175041 | 79 | 172 | 1.0 | 2.0 | 0.00 | 0.00 | 0.00 | 78 | 1006.6 |
| 20260505174538 | 79 | 152 | 0.0 | 0.0 | 0.00 | 0.00 | 0.00 | 79 | 1006.6 |
| 20260505174034 | 79 | 180 | 1.0 | 2.0 | 0.00 | 0.00 | 0.00 | 79 | 1006.9 |
| 20260505173531 | 78 | 150 | 1.0 | 2.0 | 0.00 | 0.00 | 0.00 | 79 | 1006.9 |
| 20260505173028 | 78 | 237 | 2.0 | 2.0 | 0.00 | 0.00 | 0.00 | 80 | 1006.7 |
| 20260505172526 | 78 | 162 | 0.0 | 1.0 | 0.00 | 0.00 | 0.00 | 80 | 1006.8 |
| 20260505172021 | 78 | 97 | 2.0 | 3.0 | 0.00 | 0.00 | 0.00 | 80 | 1006.8 |
| 20260505171517 | 77 | 127 | 0.0 | 0.0 | 0.00 | 0.00 | 0.00 | 82 | 1006.9 |
| 20260505171014 | 77 | 136 | 1.0 | 1.0 | 0.00 | 0.00 | 0.00 | 82 | 1007.1 |
| 20260505170510 | 77 | 130 | 1.0 | 1.0 | 0.00 | 0.00 | 0.00 | 82 | 1007.2 |
| 20260505170007 | 77 | 69 | 0.0 | 0.0 | 0.00 | 0.00 | 0.00 | 82 | 1007.2 |
| 20260505165502 | 77 | 128 | 0.0 | 0.0 | 0.00 | 0.00 | 0.00 | 82 | 1007.1 |
| 20260505164958 | 76 | 119 | 0.0 | 1.0 | 0.00 | 0.00 | 0.00 | 83 | 1007.1 |
| 20260505164454 | 77 | 146 | 0.0 | 1.0 | 0.00 | 0.00 | 0.00 | 83 | 1007.3 |
| 20260505163952 | 76 | 119 | 0.0 | 0.0 | 0.00 | 0.00 | 0.00 | 83 | 1007.1 |
| 20260505163451 | 76 | 143 | 1.0 | 1.0 | 0.00 | 0.00 | 0.00 | 83 | 1007.3 |
| 20260505162950 | 76 | 92 | 0.0 | 0.0 | 0.00 | 0.00 | 0.00 | 83 | 1007.1 |
| 20260505162445 | 76 | 109 | 0.0 | 0.0 | 0.00 | 0.00 | 0.00 | 84 | 1007.3 |
| 20260505161942 | 76 | 107 | 0.0 | 0.0 | 0.00 | 0.00 | 0.00 | 84 | 1007.1 |
| 20260505161439 | 76 | 115 | 0.0 | 0.0 | 0.00 | 0.00 | 0.00 | 84 | 1007.2 |
| 20260505160936 | 75 | 114 | 1.0 | 1.0 | 0.00 | 0.00 | 0.00 | 83 | 1007.2 |
| 20260505160435 | 75 | 129 | 0.0 | 0.0 | 0.00 | 0.00 | 0.00 | 84 | 1006.9 |
| 20260505152911 | 73 | 106 | 0.0 | 0.0 | 0.00 | 0.00 | 0.00 | 86 | 1007.2 |
| 20260505152408 | 73 | 97 | 0.0 | 1.0 | 0.00 | 0.00 | 0.00 | 87 | 1007.2 |
| 20260505151908 | 73 | 111 | 0.0 | 1.0 | 0.00 | 0.00 | 0.00 | 86 | 1006.9 |
| 20260505151404 | 73 | 102 | 0.0 | 1.0 | 0.00 | 0.00 | 0.00 | 86 | 1007.0 |
| 20260505150901 | 73 | 142 | 1.0 | 1.0 | 0.00 | 0.00 | 0.00 | 86 | 1006.8 |
| 20260505150358 | 73 | 109 | 0.0 | 0.0 | 0.00 | 0.00 | 0.00 | 86 | 1006.9 |
| 20260505140323 | 72 | 117 | 0.0 | 0.0 | 0.00 | 0.00 | 0.00 | 86 | 1007.2 |
| 20260505130246 | 71 | 118 | 0.0 | 0.0 | 0.00 | 0.00 | 0.00 | 89 | 1007.0 |
| 20260505124737 | 71 | 127 | 0.0 | 1.0 | 0.00 | 0.00 | 0.00 | 89 | 1006.8 |
| 20260505124234 | 71 | 119 | 0.0 | 0.0 | 0.00 | 0.00 | 0.00 | 89 | 1006.8 |
| 20260505123729 | 71 | 161 | 0.0 | 0.0 | 0.00 | 0.00 | 0.00 | 89 | 1006.5 |
| 20260505123226 | 71 | 140 | 0.0 | 0.0 | 0.00 | 0.00 | 0.00 | 89 | 1006.8 |
| 20260505122723 | 71 | 130 | 1.0 | 1.0 | 0.00 | 0.00 | 0.00 | 89 | 1006.6 |
| 20260505122220 | 70 | 120 | 1.0 | 1.0 | 0.00 | 0.00 | 0.00 | 89 | 1006.7 |
| 20260505121716 | 70 | 122 | 0.0 | 0.0 | 0.00 | 0.00 | 0.00 | 89 | 1006.7 |
| 20260505121213 | 70 | 117 | 0.0 | 0.0 | 0.00 | 0.00 | 0.00 | 89 | 1006.5 |
| 20260505120710 | 70 | 111 | 0.0 | 1.0 | 0.00 | 0.00 | 0.00 | 89 | 1006.5 |
| 20260505120205 | 70 | 131 | 1.0 | 1.0 | 0.00 | 0.00 | 0.00 | 89 | 1006.3 |
| 20260505115659 | 70 | 156 | 1.0 | 1.0 | 0.00 | 0.00 | 0.00 | 89 | 1006.1 |
| 20260505115157 | 70 | 117 | 0.0 | 0.0 | 0.00 | 0.00 | 0.00 | 89 | 1006.1 |
| 20260505114654 | 70 | 139 | 1.0 | 1.0 | 0.00 | 0.00 | 0.00 | 89 | 1006.0 |
| 20260505114150 | 70 | 104 | 0.0 | 0.0 | 0.00 | 0.00 | 0.00 | 89 | 1006.1 |
| 20260505113647 | 70 | 114 | 0.0 | 0.0 | 0.00 | 0.00 | 0.00 | 89 | 1006.3 |
| 20260505113143 | 70 | 118 | 0.0 | 0.0 | 0.00 | 0.00 | 0.00 | 89 | 1006.3 |
| 20260505112640 | 70 | 132 | 0.0 | 1.0 | 0.00 | 0.00 | 0.00 | 89 | 1006.2 |
| 20260505112138 | 70 | 138 | 0.0 | 1.0 | 0.00 | 0.00 | 0.00 | 89 | 1006.3 |
| 20260505111637 | 70 | 121 | 0.0 | 0.0 | 0.00 | 0.00 | 0.00 | 89 | 1006.4 |
| 20260505111133 | 70 | 122 | 0.0 | 0.0 | 0.00 | 0.00 | 0.00 | 89 | 1006.3 |
| 20260505110630 | 70 | 143 | 1.0 | 1.0 | 0.00 | 0.00 | 0.00 | 89 | 1006.4 |
| 20260505110127 | 70 | 132 | 0.0 | 1.0 | 0.00 | 0.00 | 0.00 | 89 | 1006.5 |
| 20260505102103 | 69 | 123 | 2.0 | 2.0 | 0.00 | 0.00 | 0.00 | 89 | 1006.0 |
| 20260505101601 | 69 | 132 | 0.0 | 1.0 | 0.00 | 0.00 | 0.00 | 89 | 1005.9 |
| 20260505101057 | 69 | 120 | 0.0 | 0.0 | 0.00 | 0.00 | 0.00 | 88 | 1006.4 |
| 20260505100554 | 69 | 129 | 1.0 | 1.0 | 0.00 | 0.00 | 0.00 | 88 | 1006.1 |
| 20260505100051 | 69 | 140 | 0.0 | 0.0 | 0.00 | 0.00 | 0.00 | 89 | 1006.3 |
| 20260505095547 | 69 | 106 | 0.0 | 0.0 | 0.00 | 0.00 | 0.00 | 89 | 1006.2 |
| 20260505095043 | 69 | 124 | 0.0 | 0.0 | 0.00 | 0.00 | 0.00 | 88 | 1006.2 |
| 20260505094540 | 69 | 118 | 0.0 | 0.0 | 0.00 | 0.00 | 0.00 | 88 | 1005.8 |
| 20260505094036 | 69 | 112 | 0.0 | 0.0 | 0.00 | 0.00 | 0.00 | 88 | 1006.1 |
| 20260505093533 | 69 | 142 | 0.0 | 1.0 | 0.00 | 0.00 | 0.00 | 88 | 1006.0 |
| 20260505093030 | 69 | 147 | 0.0 | 0.0 | 0.00 | 0.00 | 0.00 | 89 | 1006.2 |
| 20260505092527 | 69 | 121 | 0.0 | 1.0 | 0.00 | 0.00 | 0.00 | 89 | 1006.2 |
| 20260505092026 | 69 | 120 | 0.0 | 0.0 | 0.00 | 0.00 | 0.00 | 89 | 1006.3 |
| 20260505091522 | 69 | 134 | 1.0 | 1.0 | 0.00 | 0.00 | 0.00 | 89 | 1006.4 |
| 20260505091020 | 69 | 134 | 0.0 | 1.0 | 0.00 | 0.00 | 0.00 | 89 | 1006.7 |
| 20260505090518 | 68 | 157 | 0.0 | 1.0 | 0.00 | 0.00 | 0.00 | 89 | 1006.6 |
| 20260505090016 | 68 | 128 | 0.0 | 0.0 | 0.00 | 0.00 | 0.00 | 89 | 1006.7 |
| 20260505085514 | 68 | 122 | 0.0 | 0.0 | 0.00 | 0.00 | 0.00 | 89 | 1006.6 |
| 20260505085012 | 68 | 129 | 0.0 | 0.0 | 0.00 | 0.00 | 0.00 | 89 | 1006.8 |
| 20260505084510 | 68 | 121 | 0.0 | 1.0 | 0.00 | 0.00 | 0.00 | 89 | 1006.8 |
| 20260505084007 | 68 | 124 | 1.0 | 1.0 | 0.00 | 0.00 | 0.00 | 89 | 1006.8 |
| 20260505083504 | 68 | 131 | 0.0 | 1.0 | 0.00 | 0.00 | 0.00 | 90 | 1007.0 |
| 20260505083001 | 68 | 129 | 0.0 | 0.0 | 0.00 | 0.00 | 0.00 | 90 | 1007.0 |
| 20260505082456 | 68 | 122 | 1.0 | 1.0 | 0.00 | 0.00 | 0.00 | 90 | 1006.8 |
| 20260505081953 | 68 | 113 | 0.0 | 0.0 | 0.00 | 0.00 | 0.00 | 90 | 1007.0 |
| 20260505081450 | 68 | 120 | 0.0 | 0.0 | 0.00 | 0.00 | 0.00 | 90 | 1007.2 |
| 20260505080946 | 68 | 116 | 0.0 | 0.0 | 0.00 | 0.00 | 0.00 | 90 | 1006.9 |
| 20260505080443 | 68 | 111 | 0.0 | 0.0 | 0.00 | 0.00 | 0.00 | 90 | 1007.1 |
| 20260505075938 | 68 | 125 | 0.0 | 0.0 | 0.00 | 0.00 | 0.00 | 90 | 1007.0 |
| 20260505075435 | 68 | 127 | 0.0 | 0.0 | 0.00 | 0.00 | 0.00 | 90 | 1007.3 |
| 20260505074933 | 68 | 112 | 0.0 | 0.0 | 0.00 | 0.00 | 0.00 | 89 | 1007.2 |
| 20260505074430 | 68 | 131 | 1.0 | 1.0 | 0.00 | 0.00 | 0.00 | 90 | 1007.2 |
| 20260505073927 | 68 | 121 | 0.0 | 1.0 | 0.00 | 0.00 | 0.00 | 90 | 1007.3 |
| 20260505073425 | 68 | 124 | 0.0 | 0.0 | 0.00 | 0.00 | 0.00 | 90 | 1007.3 |
| 20260505072921 | 68 | 131 | 0.0 | 0.0 | 0.00 | 0.00 | 0.00 | 89 | 1007.5 |
| 20260505072418 | 68 | 127 | 0.0 | 0.0 | 0.00 | 0.00 | 0.00 | 89 | 1007.5 |
| 20260505071914 | 68 | 121 | 0.0 | 0.0 | 0.00 | 0.00 | 0.00 | 89 | 1007.5 |
| 20260505071410 | 68 | 123 | 0.0 | 0.0 | 0.00 | 0.00 | 0.00 | 89 | 1007.7 |
| 20260505070908 | 68 | 116 | 0.0 | 0.0 | 0.00 | 0.00 | 0.00 | 89 | 1007.7 |
| 20260505070404 | 68 | 115 | 0.0 | 0.0 | 0.00 | 0.00 | 0.00 | 89 | 1007.6 |
| 20260505065900 | 68 | 117 | 0.0 | 0.0 | 0.00 | 0.00 | 0.00 | 89 | 1007.6 |
| 20260505065357 | 68 | 117 | 0.0 | 0.0 | 0.00 | 0.00 | 0.00 | 88 | 1007.5 |
| 20260505064854 | 68 | 117 | 0.0 | 0.0 | 0.00 | 0.00 | 0.00 | 88 | 1007.6 |
| 20260505064351 | 68 | 135 | 0.0 | 1.0 | 0.00 | 0.00 | 0.00 | 88 | 1007.7 |
| 20260505063850 | 68 | 116 | 0.0 | 0.0 | 0.00 | 0.00 | 0.00 | 88 | 1007.9 |
| 20260505063345 | 68 | 119 | 0.0 | 0.0 | 0.00 | 0.00 | 0.00 | 88 | 1008.1 |
| 20260505062842 | 68 | 118 | 0.0 | 0.0 | 0.00 | 0.00 | 0.00 | 88 | 1007.9 |
| 20260505062339 | 68 | 124 | 0.0 | 0.0 | 0.00 | 0.00 | 0.00 | 87 | 1008.2 |
| 20260505061836 | 68 | 165 | 0.0 | 1.0 | 0.00 | 0.00 | 0.00 | 87 | 1008.1 |
| 20260505061334 | 68 | 102 | 0.0 | 0.0 | 0.00 | 0.00 | 0.00 | 87 | 1008.2 |
| 20260505060831 | 68 | 100 | 0.0 | 0.0 | 0.00 | 0.00 | 0.00 | 86 | 1008.1 |
| 20260505060328 | 68 | 110 | 0.0 | 0.0 | 0.00 | 0.00 | 0.00 | 86 | 1008.1 |
| 20260505055824 | 69 | 117 | 0.0 | 0.0 | 0.00 | 0.00 | 0.00 | 85 | 1008.0 |
| 20260505055320 | 69 | 116 | 0.0 | 0.0 | 0.00 | 0.00 | 0.00 | 85 | 1008.0 |
| 20260505054818 | 69 | 124 | 0.0 | 1.0 | 0.00 | 0.00 | 0.00 | 85 | 1008.2 |
| 20260505054315 | 69 | 115 | 0.0 | 1.0 | 0.00 | 0.00 | 0.00 | 85 | 1008.2 |
| 20260505053813 | 69 | 119 | 0.0 | 0.0 | 0.00 | 0.00 | 0.00 | 85 | 1008.4 |
| 20260505053310 | 69 | 114 | 0.0 | 0.0 | 0.00 | 0.00 | 0.00 | 84 | 1008.3 |
| 20260505052806 | 69 | 93 | 0.0 | 0.0 | 0.00 | 0.00 | 0.00 | 84 | 1008.2 |
| 20260505052304 | 69 | 130 | 0.0 | 0.0 | 0.00 | 0.00 | 0.00 | 84 | 1008.2 |
| 20260505051800 | 69 | 101 | 0.0 | 0.0 | 0.00 | 0.00 | 0.00 | 83 | 1008.3 |
| 20260505051258 | 69 | 106 | 0.0 | 0.0 | 0.00 | 0.00 | 0.00 | 84 | 1008.4 |
| 20260505050756 | 69 | 105 | 0.0 | 0.0 | 0.00 | 0.00 | 0.00 | 83 | 1008.4 |
| 20260505050254 | 69 | 118 | 0.0 | 0.0 | 0.00 | 0.00 | 0.00 | 82 | 1008.4 |
| 20260505041729 | 70 | 89 | 0.0 | 0.0 | 0.00 | 0.02 | 0.02 | 82 | 1008.2 |
| 20260505041226 | 70 | 115 | 0.0 | 0.0 | 0.00 | 0.02 | 0.02 | 81 | 1008.2 |
| 20260505040724 | 70 | 112 | 0.0 | 0.0 | 0.00 | 0.02 | 0.02 | 81 | 1008.7 |
| 20260505040220 | 70 | 103 | 1.0 | 1.0 | 0.00 | 0.02 | 0.02 | 81 | 1008.4 |
| 20260505035718 | 70 | 112 | 0.0 | 0.0 | 0.00 | 0.02 | 0.02 | 80 | 1008.6 |
| 20260505035213 | 70 | 118 | 0.0 | 0.0 | 0.00 | 0.02 | 0.02 | 80 | 1008.5 |
| 20260505034710 | 71 | 107 | 0.0 | 0.0 | 0.05 | 0.02 | 0.02 | 79 | 1008.7 |
| 20260505034207 | 70 | 133 | 0.0 | 1.0 | 0.05 | 0.02 | 0.02 | 79 | 1008.7 |
| 20260505033703 | 71 | 126 | 0.0 | 1.0 | 0.00 | 0.01 | 0.01 | 79 | 1008.5 |
| 20260505033202 | 71 | 111 | 0.0 | 0.0 | 0.00 | 0.01 | 0.01 | 78 | 1008.3 |
| 20260505032659 | 71 | 103 | 0.0 | 0.0 | 0.00 | 0.01 | 0.01 | 77 | 1008.2 |
| 20260505032155 | 71 | 117 | 0.0 | 0.0 | 0.00 | 0.01 | 0.01 | 76 | 1008.2 |
| 20260505031653 | 71 | 111 | 0.0 | 1.0 | 0.00 | 0.01 | 0.01 | 76 | 1008.3 |
| 20260505031149 | 71 | 104 | 1.0 | 1.0 | 0.00 | 0.01 | 0.01 | 76 | 1008.1 |
| 20260505030646 | 71 | 112 | 1.0 | 1.0 | 0.00 | 0.01 | 0.01 | 76 | 1007.9 |
| 20260505030141 | 71 | 117 | 0.0 | 1.0 | 0.00 | 0.01 | 0.01 | 76 | 1008.2 |
| 20260505025638 | 71 | 107 | 0.0 | 0.0 | 0.00 | 0.01 | 0.01 | 78 | 1008.1 |
| 20260505025136 | 71 | 99 | 0.0 | 0.0 | 0.00 | 0.01 | 0.01 | 76 | 1008.2 |
| 20260505024634 | 71 | 103 | 0.0 | 0.0 | 0.00 | 0.01 | 0.01 | 76 | 1008.0 |
| 20260505024131 | 71 | 116 | 0.0 | 0.0 | 0.00 | 0.01 | 0.01 | 76 | 1007.8 |
| 20260505023628 | 70 | 113 | 0.0 | 0.0 | 0.00 | 0.01 | 0.01 | 76 | 1008.2 |
| 20260505023125 | 69 | 122 | 0.0 | 0.0 | 0.00 | 0.01 | 0.01 | 80 | 1008.1 |
| 20260505022623 | 69 | 105 | 0.0 | 0.0 | 0.00 | 0.01 | 0.01 | 80 | 1008.4 |
| 20260505022119 | 69 | 117 | 0.0 | 0.0 | 0.00 | 0.01 | 0.01 | 79 | 1008.2 |
| 20260505021616 | 70 | 113 | 0.0 | 0.0 | 0.00 | 0.01 | 0.01 | 79 | 1008.1 |
| 20260505021113 | 70 | 115 | 0.0 | 0.0 | 0.00 | 0.01 | 0.01 | 78 | 1008.4 |
| 20260505020608 | 70 | 115 | 0.0 | 0.0 | 0.00 | 0.01 | 0.01 | 79 | 1008.0 |
| 20260505020105 | 70 | 110 | 0.0 | 0.0 | 0.00 | 0.01 | 0.01 | 78 | 1008.1 |
| 20260505015602 | 70 | 116 | 0.0 | 0.0 | 0.00 | 0.01 | 0.01 | 77 | 1007.9 |
| 20260505015059 | 71 | 116 | 0.0 | 0.0 | 0.00 | 0.01 | 0.01 | 77 | 1008.1 |
| 20260505014555 | 71 | 116 | 0.0 | 0.0 | 0.00 | 0.01 | 0.01 | 76 | 1007.9 |
| 20260505014053 | 71 | 116 | 0.0 | 0.0 | 0.00 | 0.01 | 0.01 | 76 | 1008.1 |
| 20260505013550 | 71 | 118 | 0.0 | 0.0 | 0.00 | 0.01 | 0.01 | 77 | 1007.6 |
| 20260505013047 | 71 | 113 | 0.0 | 0.0 | 0.00 | 0.01 | 0.01 | 77 | 1007.8 |
| 20260505012545 | 72 | 118 | 0.0 | 0.0 | 0.00 | 0.01 | 0.01 | 75 | 1007.9 |
| 20260505012042 | 72 | 107 | 0.0 | 0.0 | 0.00 | 0.01 | 0.01 | 75 | 1007.7 |
| 20260505011537 | 72 | 108 | 0.0 | 0.0 | 0.00 | 0.01 | 0.01 | 73 | 1007.7 |
| 20260505011035 | 73 | 111 | 0.0 | 0.0 | 0.00 | 0.01 | 0.01 | 72 | 1007.8 |
| 20260505010530 | 73 | 110 | 0.0 | 0.0 | 0.00 | 0.01 | 0.01 | 72 | 1007.8 |
| 20260505010027 | 73 | 110 | 0.0 | 0.0 | 0.00 | 0.01 | 0.01 | 71 | 1007.6 |
| 20260505005523 | 74 | 110 | 0.0 | 0.0 | 0.00 | 0.01 | 0.01 | 69 | 1007.6 |
| 20260505005021 | 74 | 113 | 0.0 | 0.0 | 0.00 | 0.01 | 0.01 | 70 | 1007.7 |
| 20260505004517 | 74 | 112 | 0.0 | 0.0 | 0.00 | 0.01 | 0.01 | 70 | 1007.6 |
| 20260505004014 | 74 | 117 | 0.0 | 0.0 | 0.00 | 0.01 | 0.01 | 69 | 1007.4 |
| 20260505003511 | 75 | 108 | 0.0 | 0.0 | 0.00 | 0.01 | 0.01 | 68 | 1007.6 |
| 20260505003009 | 75 | 110 | 0.0 | 0.0 | 0.00 | 0.01 | 0.01 | 67 | 1007.6 |
| 20260505002504 | 75 | 104 | 0.0 | 0.0 | 0.00 | 0.01 | 0.01 | 65 | 1007.5 |
| 20260505002003 | 76 | 115 | 0.0 | 0.0 | 0.00 | 0.01 | 0.01 | 63 | 1007.7 |
| 20260505001500 | 76 | 108 | 0.0 | 0.0 | 0.00 | 0.01 | 0.01 | 64 | 1007.7 |
| 20260505000956 | 77 | 102 | 0.0 | 0.0 | 0.00 | 0.01 | 0.01 | 61 | 1007.8 |
| 20260505000454 | 77 | 116 | 0.0 | 1.0 | 0.00 | 0.01 | 0.01 | 60 | 1008.0 |
| 20260504235951 | 77 | 117 | 1.0 | 1.0 | 0.00 | 0.01 | 0.01 | 58 | 1008.0 |
| 20260504235448 | 77 | 109 | 0.0 | 0.0 | 0.00 | 0.01 | 0.01 | 60 | 1007.8 |
| 20260504234945 | 77 | 111 | 0.0 | 0.0 | 0.00 | 0.01 | 0.01 | 60 | 1008.0 |
| 20260504234442 | 78 | 165 | 0.0 | 1.0 | 0.00 | 0.01 | 0.01 | 57 | 1008.3 |
| 20260504233938 | 77 | 132 | 0.0 | 1.0 | 0.00 | 0.01 | 0.01 | 56 | 1008.1 |
| 20260504233434 | 78 | 98 | 0.0 | 0.0 | 0.00 | 0.01 | 0.01 | 58 | 1008.2 |
| 20260504232931 | 78 | 106 | 0.0 | 0.0 | 0.00 | 0.01 | 0.01 | 60 | 1008.2 |
| 20260504232428 | 78 | 111 | 0.0 | 0.0 | 0.00 | 0.01 | 0.01 | 59 | 1008.2 |
| 20260504231925 | 78 | 112 | 0.0 | 0.0 | 0.00 | 0.01 | 0.01 | 56 | 1008.3 |
| 20260504231422 | 78 | 140 | 1.0 | 1.0 | 0.00 | 0.01 | 0.01 | 56 | 1008.4 |
| 20260504230918 | 78 | 125 | 0.0 | 0.0 | 0.00 | 0.01 | 0.01 | 57 | 1008.4 |
| 20260504230415 | 78 | 115 | 0.0 | 0.0 | 0.00 | 0.01 | 0.01 | 56 | 1008.2 |
| 20260504225914 | 78 | 119 | 0.0 | 0.0 | 0.00 | 0.01 | 0.01 | 55 | 1008.4 |
| 20260504225410 | 78 | 105 | 1.0 | 2.0 | 0.00 | 0.01 | 0.01 | 55 | 1008.4 |
| 20260504224908 | 78 | 104 | 0.0 | 0.0 | 0.00 | 0.01 | 0.01 | 56 | 1008.6 |
| 20260504224404 | 78 | 110 | 0.0 | 0.0 | 0.00 | 0.01 | 0.01 | 56 | 1008.6 |
| 20260504223901 | 78 | 124 | 0.0 | 0.0 | 0.00 | 0.01 | 0.01 | 56 | 1008.4 |
| 20260504223356 | 79 | 119 | 0.0 | 0.0 | 0.00 | 0.01 | 0.01 | 54 | 1008.8 |
| 20260504222853 | 79 | 131 | 0.0 | 1.0 | 0.00 | 0.01 | 0.01 | 53 | 1008.6 |
| 20260504222350 | 79 | 152 | 0.0 | 0.0 | 0.00 | 0.01 | 0.01 | 53 | 1009.0 |
| 20260504221849 | 80 | 129 | 0.0 | 1.0 | 0.00 | 0.01 | 0.01 | 52 | 1008.8 |
| 20260504221345 | 80 | 103 | 1.0 | 1.0 | 0.00 | 0.01 | 0.01 | 52 | 1009.1 |
| 20260504220842 | 80 | 133 | 2.0 | 2.0 | 0.00 | 0.01 | 0.01 | 51 | 1009.0 |
| 20260504220339 | 80 | 128 | 0.0 | 1.0 | 0.00 | 0.01 | 0.01 | 50 | 1009.0 |
| 20260504215836 | 80 | 102 | 0.0 | 0.0 | 0.00 | 0.01 | 0.01 | 53 | 1008.9 |
| 20260504215332 | 80 | 136 | 0.0 | 1.0 | 0.00 | 0.01 | 0.01 | 50 | 1009.1 |
| 20260504214828 | 80 | 120 | 0.0 | 0.0 | 0.00 | 0.01 | 0.01 | 50 | 1009.3 |
| 20260504214326 | 80 | 127 | 1.0 | 1.0 | 0.00 | 0.01 | 0.01 | 49 | 1009.2 |